BREEZE-M DEB, 38585

Orbit data source: Space-Track

BREEZE-M DEB, 38585 is space debris in HEO originally from a launch on Fri, 14 Mar 2008 UTC launched from the Tyuratam Missile And Space Complex (TTMTR). Debris objects in space refer to the collection of defunct objects orbiting the Earth. Examples of debris include non-operational satellites, rocket bodies, and fragments generated from explosions, collisions, or faulty payload assembly.

Loading next visibility...
Identifier
38585, 2008-011AG
Orbit
HEO
Country
Flag of CISCIS
Related business
Manufacturer
Unknown
Mission
Spacecraft
Bus & Motor
Unknown
Mass
Unknown
Launch date (UTC)
2008-03-14 (18 years ago)
Launch vehicle
Unknown
Launch site
Tyuratam Missile And Space Complex (TTMTR)
Object type
Payload
Rocket body
Debris
Shape & HBR
Unknown shape, 0.3 m
Radar Cross Section
Medium (>0.1 m² and <1 m²)

Expand to show TLE details & history
Last TLE update: 6 days ago

TLE from 6 days ago
0 BREEZE-M DEB
1 38585U 08011AG  26168.00732998  .00013629  00000-0  26782-2 0  9998
2 38585  49.4230  27.8793 6401245 141.8189 288.0178  3.46070424179756
Epoch: 2026-06-17T00:10Z
TLE epoch observation values (Epoch: 2026-06-17T00:10:33.310Z)
Latitude
0.00002°
Longitude
119.99154°
Altitude
15,537.787 km
Speed
3.846 km/s
True Right ascension
01h 51m 36s
True Declination
0° 00' 00"
Sunlit
Object was in daylight at epoch
Visualization orbit readout
Latitude
Unknown
Longitude
Unknown
Altitude
Unknown
Speed
Unknown
Apparent Right ascension
Unknown
Apparent Declination
Unknown
Sunlit
N/A
Visualization observer readout
Local Sidereal Time
09:27:54
Azimuth
Unknown
Elevation
Unknown
Doppler factor
Unknown
Orbital elements
Apogee altitude
23,903.959 km
Perigee altitude
266.349 km
Semi-major axis
18,463.291 km
Eccentricity
0.64012
Inclination
49.423°
RAAN
27.8793°
Arg. of periapsis
141.8189°
True anomaly
218.20357°
Mean anomaly
288.0178°
Eccentric anomaly
252.9528°
Mean motion
0.86513 °/min
Orbital period
416.12 mins
BSTAR
0.0026782
Loading maneuver chart data...
Computing Atmospheric mass density...
Loading historical data...
Loading historical data...
Loading historical data...
Loading historical data...
Loading historical data...
Loading historical data...
Loading historical data...

Documentation

Showing up to 5 results
|